Regional Weather Roundup
Issued by NWS

Home | Current Version | Previous Version | Graphics & Text | Print | Product List | Glossary On
Versions: 1 2 3 4 5 6 7 8 9 10 11 12 13 14 15 16 17 18 19 20 21 22 23 24 25 26 27 28 29 30 31 32 33 34 35 36 37 38 39 40 41 42 43 44 45 46 47 48 49 50
000
ASUS43 KLMK 250010
RWRKY
KENTUCKY REGIONAL WEATHER ROUNDUP
NATIONAL WEATHER SERVICE LOUISVILLE KY
800 PM EDT THU APR 24 2014

NOTE "FAIR" INDICATES FEW OR NO CLOUDS BELOW 12,000 FEET
WITH NO SIGNIFICANT WEATHER AND/OR OBSTRUCTIONS TO VISIBILITY.

KYZ001>023-026-027-061>063-070>075-250100-
WESTERN AND SOUTH CENTRAL KENTUCKY

CITY           SKY/WX    TMP DP  RH WIND       PRES   REMARKS
PADUCAH        CLOUDY    76  51  41 S12G22    29.69S
HENDERSON      MOCLDY    72  43  35 S7        29.71R
OWENSBORO      MOCLDY    73  40  30 SE12      29.72F
HOPKINSVILLE   PTCLDY    76  47  35 S8        29.76R
BOWLING GREEN  MOCLDY    74  42  31 S7        29.78F
GLASGOW        MOCLDY    73  38  28 S3        29.79F
$$

KYZ024-025-028>034-038-045-046-053-250100-
NORTH CENTRAL KENTUCKY

CITY           SKY/WX    TMP DP  RH WIND       PRES   REMARKS
LOUISVILLE/SDF PTCLDY    71  41  33 E8        29.77F
LOUISVILLE/LOU PTCLDY    74  39  28 SE6       29.78F
FORT KNOX      CLEAR     70  39  32 S7        29.77F
$$

KYZ035>037-039>044-047>052-055>060-089>105-250100-
NORTHEAST KENTUCKY

CITY           SKY/WX    TMP DP  RH WIND       PRES   REMARKS
LEXINGTON      CLOUDY    68  41  37 E9        29.83F
COVINGTON      CLOUDY    64  32  30 E9        29.84F
FRANKFORT      CLOUDY    65  43  44 E9        29.80F
$$

KYZ054-064>069-076>088-106>120-250100-
SOUTHEAST KENTUCKY

CITY           SKY/WX    TMP DP  RH WIND       PRES   REMARKS
JACKSON        CLOUDY    70  30  22 VRB3      29.87F
LONDON         CLOUDY    73  35  25 CALM      29.85F
SOMERSET       CLOUDY    72  36  26 CALM      29.85S
MIDDLESBORO    MOCLDY    72  36  27 S5        29.87F
MONTICELLO     CLOUDY    74  38  27 SW5       29.85F
$$




USA.gov is the U.S. government's official web portal to all federal, state and local government web resources and services.